Location: Birdton
(46.1166°N, 66.8166°W)
Time: 11:08:31
(UTC-03:00)

Daily predictions for brighter satellites

Satellite Brightness Start Highest point End
(mag) Time Altitude Azimuth Time Altitude Azimuth Time Altitude Azimuth
Cosmos 1821 Rocket 4.1 20:07:09 10° S 20:13:23 60° E 20:19:38 10° NNE
USA 215 4.4 20:08:59 10° ENE 20:13:34 20° ESE 20:18:07 10° SSE
USA 186 2.9 20:18:47 10° ESE 20:20:07 14° ENE 20:21:26 10° NE
Cosmos 1812 Rocket 3.7 20:17:47 10° S 20:22:05 55° E 20:26:24 10° NNE
Spot 2 Rocket 3.6 20:18:47 10° SSE 20:23:47 58° ENE 20:28:49 10° N
Cosmos 1674 4.4 20:23:40 10° NNE 20:25:55 15° ENE 20:27:58 11° ESE
GP-B 4.5 20:22:46 10° ESE 20:25:58 20° ENE 20:29:12 10° NNE
Resurs 01 Rocket 1.6 20:24:14 10° SSE 20:28:35 64° ENE 20:32:59 10° N
CZ-2D R/B 3.6 20:25:03 10° SE 20:28:44 44° ENE 20:32:27 10° N
Cosmos 2150 Rocket 3.9 20:23:58 10° SSW 20:29:05 74° ESE 20:34:15 10° NNE
Cosmos 2228 4.4 20:27:18 10° SSW 20:31:21 43° WNW 20:35:26 10° N
Cosmos 1605 Rocket 4.3 20:25:30 10° SSE 20:31:24 46° E 20:37:25 10° NNE
Cosmos 1076 Rocket 4.5 20:27:52 10° NNE 20:31:32 27° ENE 20:35:11 10° SE
Meteor 1-22 Rocket 4.4 20:26:15 10° S 20:31:59 64° E 20:37:58 10° NNE
Cosmos 2084 Rocket 4.4 20:28:07 10° WSW 20:31:59 45° NW 20:35:44 10° NNE
Cosmos 1805 4.1 20:30:56 10° SSE 20:34:16 28° E 20:37:37 10° NNE
Cosmos 990 Rocket 4.0 20:31:56 10° S 20:37:08 67° ESE 20:42:21 10° NNE
ALOS 2.6 20:33:37 10° S 20:38:16 69° WSW 20:42:57 10° NNW
In-Cosmos 22 4.1 20:33:26 10° N 20:38:45 61° ENE 20:43:58 10° SSE
Cosmos 1437 Rocket 3.0 20:34:56 10° SSW 20:38:56 78° W 20:43:02 10° N
Cosmos 1898 Rocket 3.8 20:33:58 10° SSW 20:39:17 73° WNW 20:44:35 10° NNE
Cosmos 2123 Rocket 4.0 20:35:17 10° N 20:41:39 77° E 20:47:56 10° SSE
Envisat 3.7 20:37:20 10° SE 20:41:50 33° ENE 20:46:21 10° N
SJ-6B 4.1 20:39:09 10° S 20:42:42 41° W 20:46:16 10° NNW
Cosmos 1844 Rocket 3.0 20:37:44 10° SSW 20:43:22 72° WNW 20:49:01 10° NNE
Helios 1B rocket 3.2 20:40:19 10° NE 20:44:00 30° E 20:47:39 10° SSE
Cosmos 1340 Rocket 4.4 20:42:32 10° NNE 20:45:16 17° ENE 20:46:28 15° E
Cosmos 1125 Rocket 4.2 20:43:30 10° SSE 20:47:56 29° E 20:52:25 10° NE
Cosmos 1470 4.3 20:47:59 16° E 20:48:18 17° E 20:50:51 10° NE
USA 267 4.1 20:42:44 10° E 20:48:40 40° NNE 20:54:40 10° NW
YAOGAN 6 4.5 20:48:31 14° ENE 20:49:09 15° ENE 20:51:17 10° NNE
Cosmos 1048 Rocket 4.5 20:44:26 10° N 20:49:18 40° ENE 20:53:05 15° SE
SAR-Lupe-4 3.7 20:46:34 10° SSE 20:50:04 54° ENE 20:53:35 10° N
Cosmos 1833 Rocket 3.3 20:45:58 10° NNW 20:51:16 40° NE 20:55:11 17° ESE
CZ-4B DEB 3.5 20:50:12 19° ESE 20:51:49 32° ENE 20:54:38 10° N
Helios 1A 3.1 20:47:56 10° SSE 20:51:59 55° ENE 20:56:06 10° N
Geosat 4.1 20:48:45 10° NE 20:53:42 55° ESE 20:58:37 10° SSW
Cosmos 2278 Rocket 2.2 20:49:33 10° SSW 20:55:09 65° ESE 21:00:47 10° NNE
Lacrosse 4 Rocket 2.2 20:52:00 10° SW 20:55:58 51° NW 20:59:57 10° NNE
Cosmos-2242 4.1 20:56:37 19° ESE 20:58:11 24° E 21:01:37 10° NE
Timation 2 Rocket 4.3 20:54:34 10° NNW 21:00:46 47° NE 21:04:53 20° ESE
Lacrosse 5 1.8 20:57:11 10° SW 21:02:12 64° SE 21:07:13 10° NE
Spot 1 4.2 20:58:06 10° SSE 21:02:42 75° ENE 21:07:37 10° NNW
CZ-3B DEB 2.7 20:52:59 10° SW 21:03:50 87° SE 21:08:37 10° NE
Cosmos 1758 3.4 21:00:38 10° S 21:04:29 52° E 21:08:23 10° NNE
ERS-1 Rocket 3.8 21:03:28 21° ESE 21:05:49 31° ENE 21:10:13 10° N
Cosmos 1733 4.3 21:08:30 24° E 21:08:30 24° E 21:11:23 10° NE
Cosmos 2297 4.1 21:03:25 10° S 21:08:40 40° ESE 21:13:59 10° NE
SPOT 5 4.5 21:07:55 19° E 21:09:26 21° ENE 21:13:20 10° NNE
SAR-Lupe-1 3.9 21:06:29 13° SSE 21:09:36 81° ENE 21:13:12 10° NNW
Cosmos 1937 Rocket 4.3 21:05:36 10° SW 21:10:44 55° WNW 21:15:58 10° NNE
Cosmos 1818 3.5 21:05:31 10° NW 21:11:00 83° NE 21:14:47 20° SE
H-2A R/B 4.1 21:08:04 10° S 21:11:45 41° W 21:15:30 10° NNW
SL-27 R/B 4.2 21:08:32 10° NW 21:11:46 33° WSW 21:15:02 10° SSW
Resurs 1-3 4.5 21:09:47 10° S 21:14:03 51° W 21:18:21 10° NNW
Cosmos 1953 2.3 21:10:02 10° S 21:14:04 63° E 21:18:05 10° NNE
Cosmos 1939 Rocket 3.2 21:12:14 25° SE 21:14:18 49° ENE 21:18:20 10° N
SeaSat 1 4.5 21:11:42 10° SSW 21:15:50 27° WSW 21:20:00 10° NW
Meteor 1-29 3.0 21:13:21 10° NNE 21:16:46 54° ESE 21:19:51 12° S
Meteor 1-4 Rocket 2.3 21:13:37 10° S 21:17:04 64° E 21:20:31 10° NNE
COSMOS 2487 2.6 21:15:45 10° NNW 21:19:17 55° ENE 21:20:12 41° ESE
Cosmos 1447 Rocket 4.4 21:14:37 10° N 21:20:47 85° E 21:26:57 10° S
Cosmos 1544 3.1 21:17:22 10° S 21:21:00 81° W 21:24:42 10° N
Cosmos 2082 Rocket 2.2 21:17:03 10° NNW 21:22:46 73° ENE 21:26:10 25° SE
Cosmos 1269 Rocket 3.9 21:18:05 10° NNW 21:23:24 78° ENE 21:26:45 23° SSE
Cosmos 1459 Rocket 4.1 21:22:58 10° SSE 21:28:58 51° E 21:34:56 10° NNE
Cosmos 1408 Rocket 3.5 21:26:11 10° N 21:30:41 81° E 21:33:15 25° SSE
Cosmos 2173 Rocket 4.1 21:26:15 10° SSE 21:32:12 53° E 21:38:15 10° NNE
Cosmos 2098 Rocket 4.4 21:25:44 10° S 21:32:56 88° E 21:40:37 10° N
NOSS 2 (F) 4.4 21:30:33 10° NW 21:33:25 86° ENE 21:33:27 85° E
Lacrosse 5 rocket 1.7 21:30:44 10° NW 21:34:34 45° NNE 21:35:09 41° ENE
Terra 4.1 21:38:27 11° NE 21:38:27 11° NE 21:39:12 10° NE
Cosmos 1271 Rocket 2.8 21:39:42 56° E 21:39:42 56° E 21:43:40 10° NNE
Tiangong 1 3.7 21:39:25 10° SW 21:40:15 11° SSW 21:40:15 11° SSW
Cosmos 1356 Rocket 4.4 21:38:41 10° N 21:41:49 32° NE 21:41:49 32° NE
Abrixas 4.1 21:45:14 10° W 21:47:07 28° WSW 21:47:07 28° WSW
ARGOS 3.7 21:47:49 36° ENE 21:48:19 37° ENE 21:53:13 10° N
Cosmos 1867 3.5 21:42:59 10° SSW 21:48:22 65° ESE 21:53:48 10° NE
USA 186 4.2 21:50:05 11° WSW 21:50:52 12° W 21:51:57 10° WNW
MetOp-A 4.3 21:50:51 46° ESE 21:51:51 53° ENE 21:57:03 10° N
Cosmos 372 Rocket 3.8 21:49:55 10° SSW 21:55:01 83° ESE 22:00:12 10° NNE
Timation 1 Rocket 4.4 21:49:35 10° SSW 21:55:36 80° WNW 22:01:40 10° NNE
USA 215 3.1 21:50:47 10° NE 21:57:20 71° SE 22:03:51 10° SW
Cosmos 1674 3.8 21:58:10 10° NNW 22:01:46 42° W 22:02:55 32° SW
GP-B 4.2 21:58:46 10° SSW 22:02:58 43° W 22:07:13 10° NNW
Cosmos 2016 Rocket 3.9 22:01:03 38° SSE 22:03:29 66° E 22:09:37 10° NNE
Cosmos 158 Rocket 4.4 21:59:49 10° NNW 22:04:49 57° WSW 22:06:53 34° SSW
Cosmos 2344 4.4 21:58:01 10° WSW 22:05:37 56° NW 22:14:41 10° NE
Cosmos 2151 3.9 22:01:41 10° N 22:04:38 37° NNE 22:04:38 37° NNE
Cosmos 1725 Rocket 4.1 22:10:02 52° E 22:10:09 52° E 22:16:08 10° NNE
Cosmos 2058 4.3 22:07:43 10° N 22:10:04 29° NNE 22:10:04 29° NNE
Meteor 2-17 Rocket 4.3 22:10:55 43° S 22:13:04 76° E 22:19:13 10° NNE
H-2A R/B 2.9 22:14:41 37° NE 22:14:41 37° NE 22:18:58 10° N
Cosmos 494 Rocket 3.9 22:10:50 10° NNW 22:15:51 70° ENE 22:15:51 70° ENE
USA 245 4.3 22:16:28 57° ENE 22:16:28 57° ENE 22:22:18 10° N
Cosmos 2100 Rocket 4.3 22:10:23 10° SSW 22:16:39 69° W 22:23:03 10° N
Tsikada Rocket 3.9 22:14:21 10° N 22:20:32 67° E 22:21:04 64° ESE
Envisat 4.4 22:17:16 16° SSW 22:20:48 34° W 22:25:27 10° NNW
Cosmos 1340 Rocket 3.8 22:18:09 10° NNW 22:21:59 42° W 22:22:08 42° W
SL-08 RB Rocket 4.5 22:23:13 43° NNE 22:23:13 43° NNE 22:26:40 10° N
YAOGAN 6 3.8 22:22:58 42° WNW 22:22:58 42° WNW 22:25:57 10° NNW
SL-08 R/B 4.4 22:21:54 54° SSE 22:23:25 78° E 22:29:51 10° N
Cosmos 1470 4.0 22:23:17 36° WSW 22:24:04 41° WNW 22:27:51 10° N
USA 267 3.1 22:30:04 63° ESE 22:31:13 80° NE 22:37:47 10° NW
Cosmos 1833 Rocket 3.9 22:30:04 10° NW 22:35:07 35° WSW 22:36:55 28° SW
Cosmos 1802 Rocket 4.3 22:31:04 20° SSW 22:35:21 63° WNW 22:41:30 10° N
NOAA 11 4.2 22:36:48 70° SW 22:37:09 72° WSW 22:42:40 10° NNW
Cosmos 2278 Rocket 4.4 22:35:06 10° WSW 22:39:43 25° NW 22:44:22 10° N
ERS-1 Rocket 4.1 22:43:28 33° SW 22:44:30 37° W 22:49:11 10° NNW
Lacrosse 5 3.2 22:40:45 10° W 22:45:27 37° NNW 22:47:18 28° NNE
MetOp-B 4.5 22:45:45 58° WSW 22:45:56 58° W 22:51:14 10° NNW
SPOT 5 3.3 22:47:10 65° W 22:47:10 65° W 22:52:19 10° NNW
H-2A R/B 4.0 22:50:04 22° N 22:50:04 22° N 22:51:36 10° N
Meteor 1-11 4.5 22:46:04 10° NNW 22:51:34 61° W 22:51:34 61° W
SPOT 1/Viking Rocket 4.1 22:58:41 55° NW 22:58:41 55° NW 23:02:49 10° NNW
Cosmos 1816 Rocket 4.5 22:53:14 10° N 22:59:12 76° WNW 22:59:12 76° WNW
Cosmos 2251 Rocket 4.3 22:54:50 10° NNW 22:59:22 49° W 22:59:22 49° W
Cosmos 2082 Rocket 4.3 23:02:25 10° WNW 23:06:12 18° W 23:08:04 16° WSW
Lacrosse 5 rocket 4.2 23:10:17 10° WNW 23:10:52 13° WNW 23:10:52 13° WNW
Terra 3.6 23:17:20 28° N 23:17:20 28° N 23:19:33 10° N
CZ-3B DEB 3.5 23:10:55 10° W 23:16:08 28° NNW 23:16:08 28° NNW
Cosmos 2233 Rocket 4.5 23:20:44 55° N 23:20:44 55° N 23:25:29 10° N
USA 215 4.0 23:33:56 10° NE 23:40:11 50° NNW 23:46:26 10° W
H-2A R/B 3.9 23:55:18 26° WNW 23:55:18 26° WNW 23:58:18 10° NNW
